Regional Weather Roundup
Issued by NWS

Home | Current Version | Previous Version | Graphics & Text | Print | Product List | Glossary Off
Versions: 1 2 3 4 5 6 7 8 9 10 11 12 13 14 15 16 17 18 19 20 21 22 23 24 25 26 27 28 29 30 31 32 33 34 35 36 37 38 39 40 41 42 43 44 45 46 47 48 49 50

000
ASUS43 KMPX 220001
RWRMN
WEATHER ROUNDUP FOR MINNESOTA
NATIONAL WEATHER SERVICE TWIN CITIES/CHANHASSEN MN
600 PM CST SUN DEC 21 2014


NOTE: "FAIR" INDICATES FEW OR NO CLOUDS BELOW 12,000 FEET WITH NO
SIGNIFICANT WEATHER AND/OR OBSTRUCTIONS TO VISIBILITY. N/A MEANS
CURRENT SKY AND/OR WEATHER CONDITIONS ARE NOT AVAILABLE.

MNZ060>063-068>070-220100-
   Twin Cities Metro

CITY           SKY/WX    TMP DP  RH WIND       PRES   REMARKS
TWIN CITIES    CLOUDY    36  35  96 SE8       29.74F FOG
6HR MIN TEMP:  34; 6HR MAX TEMP:  38; 6HR PCP:  0.08;

ST PAUL        CLOUDY    36  35  96 SE10      29.76S FOG
CRYSTAL        CLOUDY    37  35  92 S10       29.72S FOG
BLAINE         CLOUDY    37  37 100 SE7       29.73S FOG
LAKEVILLE      CLOUDY    36  36 100 S8        29.73F FOG
EDEN PRAIRIE   CLOUDY    37  35  92 S13       29.72F FOG
6HR MIN TEMP:  35; 6HR MAX TEMP:  37; 6HR PCP:  0.03;

SOUTH ST PAUL  CLOUDY    37  36  96 S7        29.75S FOG
LAKE ELMO      CLOUDY    36  36 100 S10G16    29.75F FOG
$$
MNZ001>005-007-008-013>017-022>024-027-028-220100-
   Northwest Minnesota

CITY           SKY/WX    TMP DP  RH WIND       PRES   REMARKS
BEMIDJI        CLOUDY    32  31  95 SE10      29.64S WCI  24
HALLOCK        CLOUDY    32  30  93 CALM      29.61S FOG
ROSEAU         CLOUDY    32  27  80 SE9       29.64S WCI  24
WARROAD        CLOUDY    30  28  93 S8        29.66R WCI  23
THIEF RVR FALL CLOUDY    32  30  93 SE9       29.62R WCI  24
CROOKSTON      CLOUDY    32  30  93 SE8       29.62S WCI  25
FOSSTON        CLOUDY    30  28  93 SE7       29.62F WCI  23
DETROIT LAKES  CLOUDY    32  32 100 SE14      29.61S FOG     WCI  22
MOORHEAD       CLOUDY    34  34 100 SE8       29.59F WCI  27
PARK RAPIDS    CLOUDY    33  32  96 SE8       29.63F FOG     WCI  26
MAHNOMEN       CLOUDY    32  31  95 SE9       29.60F WCI  24
$$
MNZ006-009>011-018-025>026-220100-
   North Central Minnesota

CITY           SKY/WX    TMP DP  RH WIND       PRES   REMARKS
BAUDETTE       CLOUDY    31  29  92 VRB3      29.66S
FLAG ISLAND    CLOUDY    30  28  93 S13       29.65S WCI  20
INTL FALLS     CLOUDY    32  30  92 SE7       29.70S FOG     WCI  26
6HR MIN TEMP:  30; 6HR MAX TEMP:  32;

WASKISH        CLOUDY    34  30  86 CALM      29.66F
BIG FORK       MIX PCPN  34  30  86 SE7       29.69S WCI  28
LONGVILLE      CLOUDY    32  32 100 SE3       29.67S FOG
GRAND RAPIDS   CLOUDY    32  30  93 SE9       29.69S WCI  24
CRANE LAKE     CLOUDY    30  30 100 S3        29.74S
ORR            CLOUDY    30  28  93 S8        29.69S FOG     WCI  23
COOK           CLOUDY    32  30  93 SE7       29.72S FOG     WCI  26
WALKER         CLOUDY    32  31  96 SE5       29.66S WCI  27
$$
MNZ012-019>021-037-220100-
   Northeast Minnesota

CITY           SKY/WX    TMP DP  RH WIND       PRES   REMARKS
DULUTH         FOG       32  30  92 SE10      29.73F VSB 3/4 WCI  24
6HR MIN TEMP:  31; 6HR MAX TEMP:  32; 6HR PCP: TRACE;

ELY            CLOUDY    30  30 100 S8        29.74S FOG     WCI  23
HIBBING        CLOUDY    33  30  88 SE8       29.71S FOG     WCI  26
EVELETH        CLOUDY    32  32 100 S6        29.73S FOG     WCI  26
DULUTH HARBOR  CLOUDY    36  32  87 CALM      29.78S
TWO HARBORS    CLOUDY    36  30  80 E3        29.75F
SILVER BAY     MIX PCPN  34  32  93 CALM      29.76F
GRAND MARAIS     N/A     35  33  92 SE6       29.83F WCI  30
G MARAIS ARPRT MIX PCPN  28  27  93 SE6       29.78F VSB<1/4 WCI  22
$$
MNZ029>031-032-039>041-046>048-054>057-064-220100-
   West Central Minnesota

CITY           SKY/WX    TMP DP  RH WIND       PRES   REMARKS
FERGUS FALLS   CLOUDY    34  32  93 SE15      29.62S FOG     WCI  24
WHEATON        CLOUDY    30  30 100 SE14      29.59S FOG     WCI  20
MORRIS         CLOUDY    34  34 100 SE14      29.59S FOG     WCI  24
ALEXANDRIA     FOG       34  33  96 SE10      29.62F VSB 3/4 WCI  26
ELBOW LAKE     CLOUDY    33  33 100 SE14      29.59F FOG     WCI  23
WADENA         CLOUDY    32  30  93 SE14      29.62F FOG     WCI  22
GLENWOOD       FOG       34  34 100 SE9       29.63S VSB 1/2 WCI  26
APPLETON       CLOUDY    37  34  87 SE10      29.60R FOG
BENSON         CLOUDY    36  34  93 S13       29.61S FOG
ORTONVILLE     CLOUDY    34  30  86 SE9       29.58R FOG     WCI  26
MADISON        MOCLDY    37  37 100 S14       29.59R FOG
WILLMAR        FOG       36  34  93 SE15      29.64F VSB 1/2
$$
MNZ033>034-036-042>043-049>051-058-059-220100-
   Central Minnesota

CITY           SKY/WX    TMP DP  RH WIND       PRES   REMARKS
ST CLOUD       CLOUDY    36  34  92 SE12      29.68F FOG
6HR MIN TEMP:  35; 6HR MAX TEMP:  36;

SAUK CENTRE    FOG       33  33 100 SE10      29.65S VSB 1/2 WCI  25
PAYNESVILLE    FOG       32  32 100 E9        29.65F VSB 3/4 WCI  24
AITKIN         CLOUDY    36  30  80 SE6       29.68S HAZE
PINE RIVER     CLOUDY    34  34 100 SE7       29.70F FOG     WCI  28
BRAINERD       CLOUDY    33  33 100 SE8       29.68S FOG     WCI  26
STAPLES        CLOUDY    32  32 100 SE6       29.65S FOG     WCI  26
LONG PRAIRIE   FOG       32  32 100 SE7       29.65S VSB 1/2 WCI  26
LITTLE FALLS   FOG       34  32  93 SE8       29.68S VSB 1   WCI  27
LITCHFIELD     CLOUDY    36  36 100 SE7       29.67S FOG
BUFFALO        CLOUDY    36  34  94 SE8       29.71S FOG
MAPLE LAKE     CLOUDY    36  36  99 SE8       29.70S FOG
$$
MNZ037-044-045-052-053-220100-
   East Central Minnesota

CITY           SKY/WX    TMP DP  RH WIND       PRES   REMARKS
PRINCETON      DRIZZLE   36  34  93 SE6       29.71F
MORA           CLOUDY    34  32  93 SE7       29.74S WCI  28
CAMBRIDGE      MIX PCPN  36  28  75 SE3       29.71S
RUSH CITY      CLOUDY    33  32  96 SE5       29.74S WCI  28
MOOSE LAKE     CLOUDY    34  32  93 S6        29.71F WCI  29
HINCKLEY       CLOUDY    34  34 100 CALM      29.74S
CLOQUET        CLOUDY    32  30  93 SE5       29.73S FOG     WCI  27
MCGREGOR       CLOUDY    34  32  93 SE7       29.71S WCI  28
$$
MNZ071>073-080-081-089-090-097-098-220100-
   Southwest Minnesota

CITY           SKY/WX    TMP DP  RH WIND       PRES   REMARKS
MONTEVIDEO     CLOUDY    36  36 100 S12G20    29.61S FOG
GRANITE FALLS  CLOUDY    36  35  96 SE15      29.62F FOG
CANBY          CLOUDY    36  35  95 SE8       29.59F FOG
MARSHALL       CLOUDY    37  34  87 S17G24    29.60S
REDWOOD FALLS  CLOUDY    36  35  96 SE13      29.65S FOG
OLIVIA         FOG       36  36 100 S12       29.64F VSB 3/4
PIPESTONE      FOG       36  36 100 S18       29.58S VSB 1
WINDOM         CLOUDY    37  37 100 S18       29.64S FOG
WORTHINGTON    CLOUDY    37 -11  12 S17G24    29.64S VSB 1
JACKSON        CLOUDY    37  36  93 S18G24    29.67R FOG
TRACY          CLOUDY    38  37  94 S17G24    29.60F FOG
SLAYTON        CLOUDY    36  36 100 S18G26    29.61S FOG
$$
MNZ065>067-074>077-082>085-091>093-220100-
   South Central Minnesota

CITY           SKY/WX    TMP DP  RH WIND       PRES   REMARKS
MANKATO        CLOUDY    37  34  87 S13G21    29.71S
NEW ULM        CLOUDY    37  37 100 S12       29.68S FOG
FAIRMONT       CLOUDY    37  34  87 S20G26    29.68F
GLENCOE        CLOUDY    37  37 100 SE8       29.69F FOG
FARIBAULT      CLOUDY    36  36 100 S10       29.74S FOG
OWATONNA       DRIZZLE   37  36  93 S12G21    29.74S
WASECA         CLOUDY    36  36 100 S15       29.75R FOG
ALBERT LEA     RAIN      37  37 100 S17G24    29.74S
$$
MNZ078>079-086>088-094>096-220100-
   Southeast Minnesota

CITY           SKY/WX    TMP DP  RH WIND       PRES   REMARKS
ROCHESTER      CLOUDY    37  35  92 S22G37    29.77S
6HR MIN TEMP:  35; 6HR MAX TEMP:  37; 6HR PCP:  0.01;

RED WING       CLOUDY    37  36  93 SE7       29.77F FOG
STANTON        CLOUDY    38  35  90 S10       29.74S FOG
DODGE CENTER   CLOUDY    37  37 100 S23G29    29.74F
WINONA         CLOUDY    39  36  87 S5        29.83R
AUSTIN         RAIN      37  36  93 S21G28    29.75F
PRESTON        CLOUDY    35  34  96 S21G31    29.79R FOG     WCI  24
$$
ABBREVIATIONS USED IN REMARKS
   TC - TEMPERATURES IN CELSIUS
  WCI - WIND CHILL INDEX
   HX - HEAT INDEX
  VSB - VISIBILITY
$$


USA.gov is the U.S. government's official web portal to all federal, state and local government web resources and services.